Regional Weather Roundup
Issued by NWS Sterling, VA

Home | Current Version | Previous Version | Text Only | Print | Product List | Glossary Off
Versions: 1 2 3 4 5 6 7 8 9 10 11 12 13 14 15 16 17 18 19 20 21 22 23 24 25 26 27 28 29 30 31 32 33 34 35 36 37 38 39 40 41 42 43 44 45 46 47 48 49 50

000
ASUS41 KLWX 290110
RWRLWX

REGIONAL WEATHER ROUNDUP
NATIONAL WEATHER SERVICE BALTIMORE MD/WASHINGTON DC
900 PM EDT THU AUG 28 2014

Note: "FAIR" indicates few or no clouds below 12,000 feet
with no significant weather and/or obstructions to visibility.
 TC=TEMPERATURE CELSIUS

 * =Non NWS site. Station does not report precipitation (e.g. rain,
    snow, etc.), thunder, or fog.

DCZ001-MDZ009-015-VAZ040>042-051-053>054-290200-
WASHINGTON METRO
  /KDAA//-FT BELVOIR

CITY           SKY/WX    TMP DP  RH WIND       PRES   REMARKS
WASHINGTON NAT PTCLDY    77  51  40 N9        30.04R
DULLES         CLEAR     72  54  53 NE7       30.04R
ANDREWS AFB    CLEAR     70  53  54 N7        30.04R
QUANTICO       CLEAR     76  57  51 N7        30.03R
COLLEGE PARK*  CLEAR     70  59  68 NW5       30.04R
LEESBURG*      CLEAR     73  57  56 N5        30.06R
MANASSAS*      CLEAR     68  61  77 SE3       30.04R
GAITHERSBURG*  CLEAR     66  52  59 CALM      30.09R

$$

MDZ006>007-011-014-290200-
BALTIMORE METRO

CITY           SKY/WX    TMP DP  RH WIND       PRES   REMARKS
BWI AIRPORT    CLEAR     72  55  55 CALM      30.04R
MD SCIENCE CTR   N/A     76  53  44 MISG      30.04R
MARTIN STATE   PTCLDY    72  57  60 NW3       30.05R
ANNAPOLIS      CLEAR     75  57  53 N8        30.03R
FORT MEADE*    CLEAR     63  55  77 CALM      30.06

$$

MDZ012-015-019>023-290200-
MARYLAND EASTERN SHORE

CITY           SKY/WX    TMP DP  RH WIND       PRES   REMARKS
OCEAN CITY     PTCLDY    66  62  87 N5        30.01R
SALISBURY      CLEAR     73  61  65 CALM      30.02R
CAMBRIDGE*     CLEAR     72  63  73 CALM      30.02R
EASTON*        CLEAR     73  59  60 CALM      30.06

$$

MDZ017>025-290200-
SOUTHERN MARYLAND

CITY           SKY/WX    TMP DP  RH WIND       PRES   REMARKS
PATUXENT RIVER CLEAR     73  60  63 N7        30.02R
ST INIGOES     CLEAR     74  59  59 VRB5      30.00R
LEONARDTOWN*   CLEAR     70  57  64 CALM      30.04R

$$

MDZ003>005-290200-
NORTH CENTRAL MARYLAND

CITY           SKY/WX    TMP DP  RH WIND       PRES   REMARKS
FREDERICK*     CLEAR     66  59  77 CALM      30.08R
HAGERSTOWN APT CLEAR     69  51  52 N8        30.07R
WESTMINSTER*   CLEAR     68  55  64 CALM      30.07R

$$

MDZ501>502-290200-
WESTERN MARYLAND

CITY           SKY/WX    TMP DP  RH WIND       PRES   REMARKS
OAKLAND*       CLEAR     57  52  82 NW5       30.17R
CUMBERLAND*    CLEAR     70  50  49 CALM      30.13R

$$

VAZ025>031-290200-
SHENANDOAH VALLEY

CITY           SKY/WX    TMP DP  RH WIND       PRES   REMARKS
WINCHESTER*    CLEAR     70  50  49 NW3       30.07R
STAUNTON*      CLEAR     74  54  50 NE9       30.08R

$$

WVZ021-048>050-054>055-290200-
EASTERN WEST VIRGINIA PANHANDLE

CITY           SKY/WX    TMP DP  RH WIND       PRES   REMARKS
MARTINSBURG    CLEAR     71  47  42 N6        30.07R
PETERSBURG*    NOT AVBL

$$

VAZ036>039-050-290200-
CENTRAL FOOTHILLS

CITY           SKY/WX    TMP DP  RH WIND       PRES   REMARKS
CHARLOTTESVILL CLEAR     75  62  64 N6        30.03R
ORANGE*        CLEAR     73  59  60 NE3       30.05R

$$

VAZ055>057-290200-
NORTH AND CENTRAL PIEDMONT

CITY           SKY/WX    TMP DP  RH WIND       PRES   REMARKS
FREDERICKSBRG* CLEAR     77  65  64 CALM      30.01R
STAFFORD*      CLEAR     73  61  65 N7        30.07R

$$

NCZ024-NYZ072-PAZ021-071-VAZ022-071-290200-
OTHER REGIONAL OBSERVATIONS

CITY           SKY/WX    TMP DP  RH WIND       PRES   REMARKS
NEW YORK CITY  CLEAR     73  48  41 VRB3G20   30.03R
PHILADELPHIA   CLEAR     75  52  44 NW8       30.03R
PITTSBURGH     PTCLDY    67  50  54 N7        30.12R
ROANOKE        CLEAR     78  63  59 NW7       30.06R
RICHMOND       MOCLDY    79  58  48 E6        30.00R
RALEIGH        PTCLDY    78  72  81 CALM      29.99R

$$

ANZ530>537-290200-
MARINE OBSERVATIONS

STATION/POSITION TIME  TEMP    WIND        PRES
                       AIR SEA DIR/SP/G
                 (UTC) (F)     (DEG/KT/KT) (MB)
THOMAS PT LIGHT  0100   77 79  360/ 13/ 15 1017.7R
BALT KEY BRIDGE  0100   82     340/ 10/ 12 1016.7R
COVE POINT       0100   79      10/ 14/ 17 1016.1R
LEWISETTA        0100   79 81   10/  3/  6 1015.9R
SOLOMONS ISLAND  0100      81                N/A
PINEY POINT      0100           40/  5/  7   N/A

$$




USA.gov is the U.S. government's official web portal to all federal, state and local government web resources and services.